Regional Weather Roundup
Issued by NWS Goodland, KS

Home | Current Version | Previous Version | Graphics & Text | Print | Product List | Glossary On
Versions: 1 2 3 4 5 6 7 8 9 10 11 12 13 14 15 16 17 18 19 20 21 22 23 24 25 26 27 28 29 30 31 32 33 34 35 36 37 38 39 40 41 42 43 44 45 46 47 48 49 50
951
ASUS43 KGLD 240008
RWRGLD

GOODLAND FORECAST AREA HOURLY WEATHER ROUNDUP
NATIONAL WEATHER SERVICE GOODLAND KS
500 PM MST TUE JAN 23 2018

...OFFICIAL OBSERVATIONS...

CITY           SKY/WX    TMP DP  RH WIND       PRES   REMARKS
GOODLAND KS    CLEAR     27  21  78 W12       30.26R WCI  17
HILL CITY KS   CLEAR     36  28  73 NW8       30.28R
IMPERIAL NEB   CLEAR     31  23  72 NW8       30.25R
MCCOOK NEB     PTCLDY    34  26  72 W8        30.25S
AKRON CO       CLEAR     26  17  68 N13       30.24R WCI  15
BURLINGTON CO  CLEAR     29  19  66 W7        30.27R
LIMON CO       CLEAR     27  15  61 NE8       30.25R
$$

...UNOFFICIAL OBSERVATIONS...

CITY           SKY/WX    TMP DP  RH WIND       PRES   REMARKS
COLBY KS       CLEAR     32  30  93 W9        30.27S
LENORA KS        N/A     34  32  92 NW6         N/A
NORTON KS      CLEAR     30  21  69 SW6       30.25
SHARON SPRINGS   N/A     32  23  69 CALM        N/A
KIT CARSON CO    N/A     34  18  52 CALM        N/A
YUMA CO        FAIR      32  19  59 NW6       30.25R
$$




USA.gov is the U.S. government's official web portal to all federal, state and local government web resources and services.